This is the latest recevied weather packets stored in our database for station/object W1LBM. If no packets are shown the sender has not sent any weather packets the latest 10 day(s).
| Time | Temp. | Humidity | Pressure | Rain* | Wind** | Luminosity | Snow |
|---|---|---|---|---|---|---|---|
| 1778005400 | 25° C | 49% | 1011.8 hPa | 0 mm | - | 638 W/m² | - |
| 1778005097 | 25° C | 49% | 1012 hPa | 0 mm | - | 644 W/m² | - |
| 1778004794 | 25° C | 48% | 1012.2 hPa | 0 mm | - | 651 W/m² | - |
| 1778004490 | 25° C | 49% | 1012.2 hPa | 0 mm | - | 654 W/m² | - |
| 1778004187 | 25° C | 48% | 1012.1 hPa | 0 mm | - | 660 W/m² | - |
| 1778003883 | 25° C | 49% | 1012.3 hPa | 0 mm | - | 662 W/m² | - |
| 1778003580 | 25° C | 51% | 1012.5 hPa | 0 mm | - | 665 W/m² | - |
| 1778003276 | 24.44° C | 51% | 1012.5 hPa | 0 mm | - | 671 W/m² | - |
| 1778002974 | 24.44° C | 51% | 1012.5 hPa | 0 mm | - | 676 W/m² | - |
| 1778002669 | 23.89° C | 53% | 1012.6 hPa | 0 mm | - | 678 W/m² | - |
| 1778002366 | 23.89° C | 53% | 1012.4 hPa | 0 mm | - | 685 W/m² | - |
| 1778002063 | 23.33° C | 54% | 1012.6 hPa | 0 mm | - | 686 W/m² | - |
| 1778001760 | 22.78° C | 56% | 1012.8 hPa | 0 mm | - | 692 W/m² | - |
| 1778001460 | 22.78° C | 58% | 1012.8 hPa | 0 mm | - | 696 W/m² | - |
| 1778001157 | 22.22° C | 56% | 1012.9 hPa | 0 mm | - | 697 W/m² | - |
| 1778000854 | 22.22° C | 58% | 1012.9 hPa | 0 mm | - | 703 W/m² | - |
| 1778000551 | 22.22° C | 60% | 1012.7 hPa | 0 mm | - | 702 W/m² | - |
| 1778000246 | 21.67° C | 60% | 1012.9 hPa | 0 mm | - | 706 W/m² | - |
| 1777999943 | 21.67° C | 60% | 1013 hPa | 0 mm | - | 704 W/m² | - |
| 1777999638 | 21.11° C | 60% | 1012.9 hPa | 0 mm | - | 704 W/m² | - |
| 1777999336 | 21.11° C | 61% | 1013.2 hPa | 0 mm | - | 705 W/m² | - |
| 1777999034 | 22.22° C | 59% | 1013.4 hPa | 0 mm | - | 703 W/m² | - |
| 1777998732 | 22.22° C | 60% | 1013.2 hPa | 0 mm | - | 703 W/m² | - |
| 1777998429 | 21.67° C | 60% | 1013.2 hPa | 0 mm | - | 703 W/m² | - |
| 1777998126 | 21.67° C | 59% | 1013.2 hPa | 0 mm | - | 698 W/m² | - |
* Rain latest hour (hover to see other rain measurements)
** Current wind speed in m/s (hover to see current wind gust speed)